User: anonymous   Login
Location: Unspecified
(0.0000°N, 0.0000°E)
Time: 16:54:32
(UTC+00:00)
Language:

FALCON 9 R/B - Orbit

View from above orbital plane
View from above orbital plane
View from above satellite
View from above satellite

Ground track
Ground track

The orbit data is extracted from the following two-line orbital elements,

1 37253U 10066K   17056.59235554  .00003567  00000-0  32097-3 0  9995
2 37253  34.5177 157.4024 4287531 320.6247  14.9448  6.88709077152882
Epoch (UTC): 25 February 2017 14:12:59
Eccentricity: 0.4287531
inclination: 34.5177°
perigee height: 288 km
apogee height: 10294 km
right ascension of ascending node: 157.4024°
argument of perigee: 320.6247°
revolutions per day: 6.88709077
mean anomaly at epoch: 14.9448°
orbit number at epoch: 15288

The dashed part of the orbit path shows where the satellite is in the earth's shadow,  

DLR